Regional Weather Roundup
Issued by NWS

Home | Current Version | Previous Version | Graphics & Text | Print | Product List | Glossary On
Versions: 1 2 3 4 5 6 7 8 9 10 11 12 13 14 15 16 17 18 19 20 21 22 23 24 25 26 27 28 29 30 31 32 33 34 35 36 37 38 39 40 41 42 43 44 45 46 47 48 49 50
000
ASUS43 KIND 020009
RWRIN

WEATHER ROUNDUP FOR INDIANA
NATIONAL WEATHER SERVICE INDIANAPOLIS IN
800 PM EDT WED APR 01 2015

NOTE: "FAIR" INDICATES FEW OR NO CLOUDS BELOW 12,000 FEET WITH NO
SIGNIFICANT WEATHER AND/OR OBSTRUCTIONS TO VISIBILITY.

* - STATION DOES NOT REPORT WEATHER SUCH AS PRECIPITATION OR FOG.

+ - STATION NOT QUALITY CONTROLLED BY THE NATIONAL WEATHER SERVICE.
    USE DATA WITH CAUTION...ESPECIALLY DEWPOINT AND RELATIVE
    HUMIDITY OBSERVATIONS.

INZ001>003-010>013-019-020-020100-
NORTHWEST INDIANA

CITY           SKY/WX    TMP DP  RH WIND       PRES   REMARKS
GARY /AIRPORT/ PTCLDY    70  25  18 S9G21     29.91F
KNOX *+        CLEAR     63   3   9 S9        29.95S
LA PORTE +     PTCLDY    65  37  35 S10       29.94F
6HR MIN TEMP:  65; 6HR MAX TEMP:  72;

MICHIGAN CITY+ PTCLDY    64  28  25 S10       29.93S
MONTICELLO +   CLEAR     63  38  39 SE7       29.96F
6HR MIN TEMP:  63; 6HR MAX TEMP:  69;

RENSSELAER +   CLEAR     63  37  39 S9        29.95F
VALPARAISO     PTCLDY    64  37  36 S9        29.94S
6HR MIN TEMP:  64; 6HR MAX TEMP:  71;


$$

LMZ046-743>745-020100-
SOUTHERN LAKE MICHIGAN

STATION/POSITION TIME  TEMP WIND        PRES
                       AIR  DIR/SP/G
                 (UTC) (F)  (DEG/KT/KT) (MB)
BURNS HARBOR     0000   67  190/ 14/ 20 1013.5S
MICHIGAN CITY    0000   67  160/ 14/ 19   N/A

$$

INZ004-005-014>016-021>024-020100-
NORTH CENTRAL INDIANA

CITY           SKY/WX    TMP DP  RH WIND       PRES   REMARKS
ELKHART        CLEAR     64  28  25 S9        29.96F
GOSHEN         PTCLDY    63  36  36 S12       29.97S
6HR MIN TEMP:  63; 6HR MAX TEMP:  69;

LOGANSPORT +   CLEAR     57  37  47 SE9       29.99S
PERU/GRISSOM   CLEAR     60  38  42 S10       29.98F
6HR MIN TEMP:  60; 6HR MAX TEMP:  69;

ROCHESTER +    CLEAR     63  36  36 S7        29.98F
SOUTH BEND     PTCLDY    65  33  30 S14       29.95S
6HR MIN TEMP:  65; 6HR MAX TEMP:  71;

WARSAW +       CLEAR     63  36  36 S6        29.99S

$$

INZ006>009-017-018-025>027-020100-
NORTHEAST INDIANA

CITY           SKY/WX    TMP DP  RH WIND       PRES   REMARKS
ANGOLA *+      CLEAR     61  37  41 S9        29.98F
AUBURN +       PTCLDY    61  32  33 S3        30.00F
FORT WAYNE     MOCLDY    58  38  47 S8        30.01F
6HR MIN TEMP:  58; 6HR MAX TEMP:  67;

HUNTINGTON +   CLEAR     62  29  29 S6        30.00S
6HR MIN TEMP:  62; 6HR MAX TEMP:  67;


$$

INZ028-029-035-036-043>045-051>053-020100-
WEST CENTRAL INDIANA

CITY           SKY/WX    TMP DP  RH WIND       PRES   REMARKS
CRAWFORDSVL +  PTCLDY    60  31  33 SE9       29.99F
6HR MIN TEMP:  60; 6HR MAX TEMP:  69;

GREENCASTLE +  PTCLDY    61  30  31 SE10      30.01F
LAFAYETTE      CLEAR     64  35  34 S8G20     29.97S
6HR MIN TEMP:  64; 6HR MAX TEMP:  69;

TERRE HAUTE    MOCLDY    63  37  38 S9        30.00S
6HR MIN TEMP:  63; 6HR MAX TEMP:  70;


$$

INZ030>032-037>040-046>048-054>057-064-065-020100-
CENTRAL INDIANA

CITY           SKY/WX    TMP DP  RH WIND       PRES   REMARKS
CP ATTERBURY + MOCLDY    63  32  31 S9        30.05S
COLUMBUS       CLEAR     63  27  25 S9        30.05R
FRANKFORT +    CLEAR     60  40  46 SE9       30.01F
6HR MIN TEMP:  60; 6HR MAX TEMP:  70;

GREENWOOD *+   PTCLDY    61  30  31 SE6       30.03F
INDIANAPOLIS   MOCLDY    63  33  32 SE13      30.00F
6HR MIN TEMP:  63; 6HR MAX TEMP:  69;

-EAGLE CREEK   PTCLDY    64  32  30 SE9       30.01F
6HR MIN TEMP:  63; 6HR MAX TEMP:  68;

KOKOMO *+      CLEAR     59  37  44 S10       30.00F
6HR MIN TEMP:  59; 6HR MAX TEMP:  68;

MARION +       CLEAR     59  36  41 S8        30.02S
MT COMFORT *+  PTCLDY    61  21  21 S6        30.04S
SHELBYVILLE    PTCLDY    62  38  40 S7        30.03S
6HR MIN TEMP:  62; 6HR MAX TEMP:  69;

ZIONSVILLE +   PTCLDY    61  33  34 SE8       30.02F
6HR MIN TEMP:  61; 6HR MAX TEMP:  68;


$$

INZ033-034-041-042-049-050-058-059-020100-
EAST CENTRAL INDIANA

CITY           SKY/WX    TMP DP  RH WIND       PRES   REMARKS
MUNCIE         CLEAR     63  34  33 S9        30.03S
6HR MIN TEMP:  63; 6HR MAX TEMP:  68;


$$

INZ060-061-067>069-081>083-085>088-020100-
SOUTHWEST INDIANA

CITY           SKY/WX    TMP DP  RH WIND       PRES   REMARKS
EVANSVILLE     PTCLDY    69  35  28 E6        29.99F
6HR MIN TEMP:  67; 6HR MAX TEMP:  73;

HUNTINGBURG *+ PTCLDY    64  36  34 SE9       30.02F
6HR MIN TEMP:  63; 6HR MAX TEMP:  72;

WASHINGTON +   PTCLDY    61  35  37 S7        30.00F
6HR MIN TEMP:  61; 6HR MAX TEMP:  70;


$$

INZ062-063-066-070>080-084-089>092-020100-
SOUTH CENTRAL AND SOUTHEAST INDIANA

CITY           SKY/WX    TMP DP  RH WIND       PRES   REMARKS
BLOOMINGTON    PTCLDY    63  34  33 S7        30.03S
6HR MIN TEMP:  63; 6HR MAX TEMP:  69;

MADISON *+     MOCLDY    61  27  27 S6        30.08S
SEYMOUR +      PTCLDY    63  37  39 S8        30.05S

$$



USA.gov is the U.S. government's official web portal to all federal, state and local government web resources and services.